Home   Weather   Siafa Washington Town   Past weeks
Flag for Liberia

Past Weather in Siafa Washington Town, Liberia — Yesterday and Last 2 Weeks

Now
90 °F

Partly sunny.


Feels Like: 103 °F
Forecast: N/A
Wind: 14 mph from South

Location: Roberts Field

Current Time: Jan 19, 2019 at 5:28:22 pm

Latest Report: Jan 19, 2019 at 5:00 pm


Visibility: N/A

Pressure: 29.86 "Hg

Humidity: 67%

Dew Point: 77 °F

Location of Siafa Washington TownLocation

Past Weather in Siafa Washington Town — Graph

°F

Siafa Washington Town Temperature Yesterday

Maximum temperature yesterday: 90 °F (at 1:30 pm)
Minimum temperature yesterday: 73 °F (at 7:30 am)
Average temperature yesterday: 81 °F

High & Low Weather Summary for the Past Weeks

 TemperatureHumidityPressure
High93 °F (Jan 10, 1:30 pm)100% (Jan 11, 3:00 am)30.09 "Hg (Jan 11, 3:00 am)
Low68 °F (Jan 9, 7:00 am)46% (Jan 7, 3:00 pm)29.77 "Hg (Jan 8, 4:00 pm)
Average81 °F81%29.87 "Hg
* Reported Jan 4 4:00 pm — Jan 19 4:30 pm, Siafa Washington Town. Weather by CustomWeather, © 2019

Note: Actual official high and low records may vary slightly from our data, if they occured in-between our weather recording intervals... More about our weather records

Advertising

Siafa Washington Town Weather History for the Previous 24 Hours

Scroll right to see more
 ConditionsComfort  
Time TempWeatherWind HumidityBarometerVisibility
4:30 pm
Sat, Jan 19
90 °FPartly sunny.15 mph67%29.83 "HgN/A
4:00 pm88 °FPartly sunny.14 mph66%29.86 "HgN/A
3:30 pm86 °FPartly sunny.12 mph75%29.86 "HgN/A
3:00 pm88 °FPartly sunny.9 mph70%29.86 "HgN/A
2:30 pm90 °FPartly sunny.8 mph67%29.86 "HgN/A
2:00 pm90 °FPartly sunny.5 mph67%29.89 "HgN/A
1:30 pm91 °FPartly sunny.3 mph67%29.89 "HgN/A
1:00 pm91 °FPartly sunny.No wind67%29.92 "HgN/A
12:30 pm88 °FPartly sunny.No wind66%29.92 "HgN/A
12:00 pm88 °FPartly sunny.3 mph66%29.92 "HgN/A
11:30 am88 °FPartly sunny.3 mph66%29.95 "Hg6 mi
11:00 am86 °FPartly sunny.8 mph75%29.95 "Hg6 mi
10:30 am84 °FScattered clouds.5 mph74%29.95 "Hg6 mi
10:00 am82 °FScattered clouds.3 mph79%29.95 "Hg5 mi
9:30 am79 °FScattered clouds.7 mph94%29.95 "Hg4 mi
9:00 am77 °FFog.3 mph94%29.95 "Hg4 mi
8:30 am77 °FFog.3 mph94%29.92 "Hg4 mi
8:00 am75 °FFog.No wind94%29.92 "Hg4 mi
7:30 am75 °FPassing clouds.No wind94%29.92 "Hg3 mi
6:30 am73 °FPassing clouds.5 mph100%29.89 "Hg4 mi
2:30 am75 °FPassing clouds.No wind94%29.89 "Hg4 mi
2:00 am75 °FPassing clouds.No wind94%29.92 "Hg5 mi
1:30 am75 °FPassing clouds.No wind94%29.92 "Hg5 mi
12:30 am75 °FPassing clouds.No wind94%29.92 "Hg5 mi
12:00 am75 °FPassing clouds.No wind94%29.92 "Hg5 mi
11:30 pm
Fri, Jan 18
75 °FPassing clouds.No wind94%29.92 "Hg5 mi
11:00 pm75 °FPassing clouds.No wind94%29.92 "Hg6 mi
10:30 pm75 °FPassing clouds.No wind94%29.92 "Hg6 mi
10:00 pm77 °FPassing clouds.No wind94%29.92 "Hg6 mi
9:30 pm77 °FPassing clouds.No wind94%29.92 "Hg6 mi
8:30 pm77 °FPassing clouds.No wind94%29.89 "Hg6 mi
8:00 pm79 °FPassing clouds.No wind89%29.89 "Hg6 mi
7:00 pm81 °FPassing clouds.No wind84%29.86 "Hg5 mi
6:30 pm82 °FPartly sunny.No wind74%29.83 "Hg5 mi
6:00 pm82 °FPartly sunny.6 mph74%29.83 "Hg5 mi
5:30 pm84 °FScattered clouds.3 mph70%29.83 "Hg5 mi
5:00 pm86 °FScattered clouds.5 mph62%29.83 "Hg5 mi
Weather by CustomWeather, © 2019

See weather overview